Location: Waco, TX
(31.5480°N, 97.1670°W)
Time: 16:12:02
(UTC-06:00)

ISS - Pass Details

Date: 29 January 2021
Orbit: 417 x 422 km, 51.6° (Epoch: 07 March)

Event Time Altitude Azimuth Distance (km) Brightness Sun altitude
Rises 13:53:23 0° 215° (SW) 2,346 0.9 37.8°
Reaches altitude 10° 13:55:29 10° 210° (SSW) 1,488 0.3 37.7°
Maximum altitude 13:58:46 54° 132° (SE) 510 -2.6 37.4°
Drops below altitude 10° 14:02:03 10° 54° (NE) 1,499 -1.3 37.1°
Sets 14:04:11 0° 50° (NE) 2,367 -0.4 36.9°
